Погода в Хавзе

Турция     40°58′02″N   35°40′07″E
темп.,
°C
ветер,
м/с
пор.,
м/с
влажн.,
%
обл.,
%
осадки,
мм/ч
давл.,
гПа
погр.,
м
28 сентября, вт
вт2800:00+9св11890 0.0 101822
03:00+8св11900 0.0 101815
06:00+8ссв11920 0.0 101813
09:00+13ссв22700 0.0 1018371
12:00+17ссв335011 0.0 10171366
15:00+16св556734 0.1 1017884
18:00+12всв478192 0.1 1018658
21:00+11св359076 0.1 1019345
29 сентября, ср
ср2900:00+11св2385100 0.0 1019364
03:00+11ссв238298 0.1 1019445
06:00+10ссв238697 0.1 1019223
09:00+11св238198 0.1 1019456
12:00+13св336594 0.0 1019935
15:00+14св4461100 0.1 10181009
18:00+12св4575100 0.1 1019644
21:00+8всв22915 0.1 102132
30 сентября, чт
чт3000:00+7св11916 0.0 102119
03:00+7ссз01923 0.0 102112
06:00+6сз11932 0.0 102111
09:00+10ссз127485 0.0 1021311
12:00+12ссз446999 0.0 1020697
15:00+14ссз445891 0.1 10191244
18:00+11с247591 0.4 1019375
21:00+9ссз238757 0.5 1021191
1 октября, пт
пт100:00+7сз12895 0.0 102217
03:00+6ююз11900 0.0 102211
06:00+5з118918 0.0 102310
09:00+9зюз117599 0.0 1023119
12:00+11сз357198 0.0 1022677
15:00+14с345765 0.1 10211250
18:00+11св236558 0.0 1022197
21:00+7св22925 0.0 102423
2 октября, сб
сб200:00+5св11953 0.0 102415
03:00+5св01955 0.0 102312
06:00+4с01920 0.0 102311
09:00+9ссз11710 0.0 1022280
12:00+15ссв224819 0.0 1019983
15:00+18ссв433996 0.0 10171375
18:00+12св477072 0.0 1019245
21:00+8всв229145 0.0 102035